GW3418 Weather Reports


time (UTC)temp
C
wind
direction
speed
KPH
gust
KPH
rain 1hr
cm
rain 24hr
cm
rain mn
cm
humidity
%
barometer
mb
20260506033809 19 92 0.0 0.0 0.00 0.00 0.00 95 1012.8
20260506033310 19 92 0.0 0.0 0.00 0.00 0.00 95 1012.8
20260506032808 19 92 0.0 0.0 0.00 0.00 0.00 94 1012.8
20260506030807 19 114 0.0 0.0 0.00 0.00 0.00 94 1012.8
20260506030307 19 125 0.0 0.0 0.00 0.00 0.00 94 1012.8
20260506025805 19 121 0.0 0.0 0.00 0.00 0.00 94 1012.8
20260506025306 19 132 0.0 0.0 0.00 0.00 0.00 94 1012.9
20260506024806 19 126 0.0 0.0 0.00 0.00 0.00 94 1012.9
20260506024306 19 115 0.0 0.0 0.00 0.00 0.00 94 1013.1
20260506023305 19 132 0.0 0.0 0.00 0.00 0.00 95 1013.2
20260506022805 19 132 0.0 0.0 0.00 0.00 0.00 95 1013.1
20260506022306 19 132 0.0 0.0 0.00 0.00 0.00 95 1013.1
20260506021806 19 131 0.0 0.0 0.00 0.00 0.00 95 1013.1
20260506021305 19 132 0.0 0.0 0.00 0.00 0.00 95 1013.0
20260506020805 19 132 0.0 0.0 0.00 0.00 0.00 95 1013.0
20260506020259 19 127 0.0 0.0 0.00 0.00 0.00 95 1013.0
20260506015759 19 127 0.0 0.0 0.00 0.00 0.00 95 1013.0
20260506015259 19 116 0.0 0.0 0.00 0.00 0.00 94 1013.1
20260506014758 19 123 0.0 0.0 0.00 0.00 0.00 94 1012.9
20260506014257 19 123 0.0 0.0 0.00 0.00 0.00 94 1012.8
20260506013755 19 122 0.0 0.0 0.00 0.00 0.00 94 1012.9
20260506013251 20 120 0.0 0.0 0.00 0.00 0.00 94 1012.9
20260506012751 20 143 0.0 0.0 0.00 0.00 0.00 94 1012.8
20260506011749 20 120 0.0 0.0 0.00 0.00 0.00 94 1013.1
20260506011248 20 119 0.0 0.0 0.00 0.00 0.00 93 1013.1
20260506010749 20 120 0.0 0.0 0.00 0.00 0.00 93 1012.9
20260506010249 20 120 0.0 0.0 0.00 0.00 0.00 93 1013.0
20260506004746 20 136 0.0 0.0 0.00 0.00 0.00 92 1013.1
20260506004242 20 136 0.0 0.0 0.00 0.00 0.00 92 1013.2
20260506003236 20 147 0.0 0.0 0.00 0.00 0.00 91 1013.2
20260506002217 20 128 0.0 0.0 0.00 0.00 0.00 91 1013.2
20260506001711 20 134 0.0 0.0 0.00 0.00 0.00 90 1013.1
20260506001205 21 127 0.0 0.0 0.00 0.00 0.00 90 1013.1
20260506000700 21 121 0.0 0.0 0.00 0.00 0.00 90 1013.0
20260506000153 21 122 0.0 0.0 0.00 0.00 0.00 90 1013.0
20260505235647 21 137 0.0 0.0 0.00 0.00 0.00 90 1013.0
20260505235141 21 113 0.0 0.0 0.00 0.00 0.00 90 1013.0
20260505234636 21 129 0.0 0.0 0.00 0.00 0.00 90 1012.9
20260505234129 21 131 0.0 0.0 0.00 0.00 0.00 90 1013.0
20260505233118 21 75 0.0 0.0 0.00 0.00 0.00 90 1012.9
20260505232614 21 118 0.0 0.0 0.00 0.00 0.00 90 1013.0
20260505232111 21 114 0.0 0.0 0.00 0.00 0.00 90 1012.9
20260505231106 21 126 0.0 0.0 0.00 0.00 0.00 89 1013.0
20260505230606 21 126 0.0 0.0 0.00 0.00 0.00 89 1012.9
20260505225600 21 126 0.0 0.0 0.00 0.00 0.00 88 1013.0
20260505225058 21 126 0.0 0.0 0.00 0.00 0.00 88 1012.9
20260505224558 21 126 0.0 0.0 0.00 0.00 0.00 88 1012.9
20260505224056 21 117 0.0 0.0 0.00 0.00 0.00 88 1012.7
20260505223556 21 117 0.0 0.0 0.00 0.00 0.00 88 1012.7
20260505223056 21 117 0.0 0.0 0.00 0.00 0.00 88 1012.7
20260505222553 21 116 0.0 0.0 0.00 0.00 0.00 88 1012.6
20260505222054 21 112 0.0 0.0 0.00 0.00 0.00 88 1012.6
20260505221554 21 121 0.0 0.0 0.00 0.00 0.00 88 1012.7
20260505221054 21 126 0.0 0.0 0.00 0.00 0.00 88 1012.6
20260505220552 21 124 0.0 0.0 0.00 0.00 0.00 88 1012.7
20260505220058 21 115 0.0 0.0 0.00 0.00 0.00 88 1012.7
20260505215046 21 115 0.0 0.0 0.00 0.00 0.00 88 1012.5
20260505214546 21 114 0.0 0.0 0.00 0.00 0.00 88 1012.6
20260505214044 22 112 0.0 0.0 0.00 0.00 0.00 88 1012.6
20260505213545 22 127 0.0 0.0 0.00 0.00 0.00 88 1012.5
20260505213044 22 127 0.0 0.0 0.00 0.00 0.00 88 1012.3
20260505212545 22 136 0.0 0.0 0.00 0.00 0.00 88 1012.3
20260505212043 22 136 0.0 0.0 0.00 0.00 0.00 88 1012.2
20260505211545 22 136 0.0 0.0 0.00 0.00 0.00 88 1012.2
20260505211044 22 136 0.0 0.0 0.00 0.00 0.00 88 1012.3
20260505210544 22 136 0.0 0.0 0.00 0.00 0.00 87 1012.3
20260505210044 22 136 0.0 0.0 0.00 0.00 0.00 87 1012.2
20260505205544 22 136 0.0 0.0 0.00 0.00 0.00 87 1012.2
20260505205044 22 136 0.0 0.0 0.00 0.00 0.00 87 1012.2
20260505204542 22 138 0.0 0.0 0.00 0.00 0.00 86 1012.1
20260505203542 22 139 0.0 0.0 0.00 0.00 0.00 86 1012.2
20260505203040 22 140 0.0 0.0 0.00 0.00 0.00 86 1012.1
20260505202540 22 147 0.0 0.0 0.00 0.00 0.00 85 1012.1
20260505202036 22 122 0.0 0.0 0.00 0.00 0.00 86 1012.1
20260505201536 22 122 0.0 0.0 0.00 0.00 0.00 85 1012.1
20260505200538 23 131 0.0 0.0 0.00 0.00 0.00 85 1012.1
20260505200034 22 129 0.0 0.0 0.00 0.00 0.00 85 1012.1
20260505195527 23 125 0.0 0.0 0.00 0.00 0.00 85 1012.4
20260505195025 22 124 0.0 0.0 0.00 0.00 0.00 85 1012.3
20260505194011 23 124 0.0 0.0 0.00 0.00 0.00 84 1012.4
20260505193503 23 124 0.0 0.0 0.00 0.00 0.00 84 1012.4
20260505192451 23 127 0.0 0.0 0.00 0.00 0.00 84 1012.2
20260505191945 23 131 0.0 0.0 0.00 0.00 0.00 85 1012.1
20260505191439 23 125 0.0 0.0 0.00 0.00 0.00 84 1012.1
20260505190933 23 108 0.0 0.0 0.00 0.00 0.00 84 1012.4
20260505190428 23 124 0.0 0.0 0.00 0.00 0.00 84 1012.3
20260505185921 23 151 0.0 0.0 0.00 0.00 0.00 84 1012.2
20260505185416 23 122 0.0 0.0 0.00 0.00 0.00 84 1012.3
20260505184909 23 138 0.0 0.0 0.00 0.00 0.00 83 1012.3
20260505184403 23 113 0.0 0.0 0.00 0.00 0.00 83 1012.3
20260505183858 23 82 0.0 0.0 0.00 0.00 0.00 83 1012.3
20260505183351 23 82 0.0 0.0 0.00 0.00 0.00 83 1012.5
20260505182339 23 81 0.0 0.0 0.00 0.00 0.00 83 1012.5
20260505181833 23 71 0.0 0.0 0.00 0.00 0.00 83 1012.4
20260505181328 23 71 0.0 0.0 0.00 0.00 0.00 83 1012.4
20260505180821 24 71 0.0 0.0 0.00 0.00 0.00 82 1012.6
20260505180317 24 71 0.0 0.0 0.00 0.00 0.00 82 1012.5
20260505175809 24 71 0.0 0.0 0.00 0.00 0.00 82 1012.6
20260505175305 23 70 0.0 0.0 0.00 0.00 0.00 83 1012.5
20260505174757 23 65 0.0 0.0 0.00 0.00 0.00 84 1012.7
20260505174251 23 65 0.0 0.0 0.00 0.00 0.00 83 1012.7
20260505173239 23 71 0.0 0.0 0.00 0.00 0.00 82 1012.7
20260505172733 23 101 0.0 0.0 0.00 0.00 0.00 82 1012.7
20260505172227 23 103 0.0 0.0 0.00 0.00 0.00 82 1012.8
20260505171215 23 74 0.0 0.0 0.00 0.00 0.00 82 1012.9
20260505170715 24 74 0.0 0.0 0.00 0.00 0.00 81 1012.9
20260505170215 24 105 0.0 0.0 0.00 0.00 0.00 80 1013.0
20260505165715 24 72 0.0 0.0 0.00 0.00 0.00 81 1012.9
20260505164716 25 50 0.0 0.0 0.00 0.00 0.00 80 1012.9
20260505163715 25 77 0.0 0.0 0.00 0.00 0.00 79 1012.9
20260505163215 25 70 0.0 0.0 0.00 0.00 0.00 80 1013.2
20260505162715 25 93 0.0 0.0 0.00 0.00 0.00 80 1013.2
20260505162215 25 93 0.0 0.0 0.00 0.00 0.00 80 1013.3
20260505161716 25 68 0.0 0.0 0.00 0.00 0.00 80 1013.3
20260505161215 25 63 0.0 0.0 0.00 0.00 0.00 80 1013.3
20260505160714 24 68 0.0 0.0 0.00 0.00 0.00 81 1013.2
20260505160215 24 70 0.0 0.0 0.00 0.00 0.00 81 1013.2
20260505153215 23 65 0.0 0.0 0.00 0.00 0.00 83 1013.3
20260505152715 23 69 0.0 0.0 0.00 0.00 0.00 84 1013.3
20260505151715 22 82 0.0 0.0 0.00 0.00 0.00 84 1013.3
20260505151215 22 75 0.0 0.0 0.00 0.00 0.00 82 1013.2
20260505150715 22 84 0.0 0.0 0.00 0.00 0.00 84 1013.4
20260505150214 22 84 0.0 0.0 0.00 0.00 0.00 84 1013.5
20260505140508 -17 0.0 0.0 0.00 0.00 0.00 1013.8
20260505130117 -17 0.0 0.0 0.00 0.00 0.00 1013.8
20260505125014 -17 0.0 0.0 0.00 0.00 0.00 1013.8
20260505124506 -17 0.0 0.0 0.00 0.00 0.00 1013.7
20260505124005 -17 0.0 0.0 0.00 0.00 0.00 1013.7
20260505123413 -17 0.0 0.0 0.00 0.00 0.00 1013.6
20260505122904 -17 0.0 0.0 0.00 0.00 0.00 1013.5
20260505122403 -17 0.0 0.0 0.00 0.00 0.00 1013.6
20260505121306 -17 0.0 0.0 0.00 0.00 0.00 1013.3
20260505120711 -17 0.0 0.0 0.00 0.00 0.00 1013.5
20260505120207 -17 0.0 0.0 0.00 0.00 0.00 1013.2
20260505115707 -17 0.0 0.0 0.00 0.00 0.00 1013.1
20260505115206 -17 0.0 0.0 0.00 0.00 0.00 1013.0
20260505114618 -17 0.0 0.0 0.00 0.00 0.00 1013.0
20260505114111 -17 0.0 0.0 0.00 0.00 0.00 1013.1
20260505113605 -17 0.0 0.0 0.00 0.00 0.00 1012.9
20260505112512 -17 0.0 0.0 0.00 0.00 0.00 1012.9
20260505112009 -17 0.0 0.0 0.00 0.00 0.00 1012.9
20260505111507 -17 0.0 0.0 0.00 0.00 0.00 1012.7
20260505111008 -17 0.0 0.0 0.00 0.00 0.00 1012.7
20260505102211 -17 0.0 0.0 0.00 0.00 0.00 1012.5
20260505101707 -17 0.0 0.0 0.00 0.00 0.00 1012.5
20260505101117 -17 0.0 0.0 0.00 0.00 0.00 1012.5
20260505100616 -17 0.0 0.0 0.00 0.00 0.00 1012.5
20260505100107 -17 0.0 0.0 0.00 0.00 0.00 1012.3
20260505095603 -17 0.0 0.0 0.00 0.00 0.00 1012.2
20260505095007 -17 0.0 0.0 0.00 0.00 0.00 1012.2
20260505094419 -17 0.0 0.0 0.00 0.00 0.00 1011.9
20260505092905 -17 0.0 0.0 0.00 0.00 0.00 1011.9
20260505092404 -17 0.0 0.0 0.00 0.00 0.00 1011.9
20260505091303 -17 0.0 0.0 0.00 0.00 0.00 1012.0
20260505090705 -17 0.0 0.0 0.00 0.00 0.00 1011.9
20260505090205 -17 0.0 0.0 0.00 0.00 0.00 1011.8
20260505084608 -17 0.0 0.0 0.00 0.00 0.00 1011.8
20260505084105 -17 0.0 0.0 0.00 0.00 0.00 1011.8
20260505083605 -17 0.0 0.0 0.00 0.00 0.00 1011.9
20260505083013 -17 0.0 0.0 0.00 0.00 0.00 1012.0
20260505082513 -17 0.0 0.0 0.00 0.00 0.00 1011.9
20260505082003 -17 0.0 0.0 0.00 0.00 0.00 1012.0
20260505080815 -17 0.0 0.0 0.00 0.00 0.00 1011.8
20260505080218 -17 0.0 0.0 0.00 0.00 0.00 1011.9
20260505075707 -17 0.0 0.0 0.00 0.00 0.00 1011.9
20260505075207 -17 0.0 0.0 0.00 0.00 0.00 1011.9
20260505073618 10 84 0.0 0.0 0.00 0.00 0.00 97 1011.7
20260505072608 10 94 0.0 0.0 0.00 0.00 0.00 97 1011.6
20260505072107 11 94 0.0 0.0 0.00 0.00 0.00 97 1011.5
20260505071107 11 94 0.0 0.0 0.00 0.00 0.00 97 1011.4
20260505070605 11 94 0.0 0.0 0.00 0.00 0.00 97 1011.4
20260505070105 11 94 0.0 0.0 0.00 0.00 0.00 97 1011.5
20260505065605 11 94 0.0 0.0 0.00 0.00 0.00 97 1011.5
20260505065103 11 94 0.0 0.0 0.00 0.00 0.00 98 1011.3
20260505064601 11 94 0.0 0.0 0.00 0.00 0.00 98 1011.4
20260505064059 10 94 0.0 0.0 0.00 0.00 0.00 97 1011.5
20260505063557 11 94 0.0 0.0 0.00 0.00 0.00 97 1011.5
20260505062553 11 94 0.0 0.0 0.00 0.00 0.00 98 1011.5
20260505062050 11 94 0.0 0.0 0.00 0.00 0.00 98 1011.6
20260505061550 10 94 0.0 0.0 0.00 0.00 0.00 98 1011.7
20260505061049 10 94 0.0 0.0 0.00 0.00 0.00 98 1011.8
20260505060549 10 94 0.0 0.0 0.00 0.00 0.00 97 1011.8
20260505060049 10 94 0.0 0.0 0.00 0.00 0.00 97 1011.8
20260505055549 10 94 0.0 0.0 0.00 0.00 0.00 97 1011.8
20260505055049 10 94 0.0 0.0 0.00 0.00 0.00 97 1011.8
20260505054549 10 94 0.0 0.0 0.00 0.00 0.00 97 1011.8
20260505054049 10 94 0.0 0.0 0.00 0.00 0.00 97 1011.8
20260505053549 10 94 0.0 0.0 0.00 0.00 0.00 97 1011.9
20260505052549 10 94 0.0 0.0 0.00 0.00 0.00 96 1012.1
20260505052049 10 94 0.0 0.0 0.00 0.00 0.00 96 1012.0
20260505051546 10 94 0.0 0.0 0.00 0.00 0.00 97 1012.1
20260505051045 10 94 0.0 0.0 0.00 0.00 0.00 97 1012.0
20260505050545 10 94 0.0 0.0 0.00 0.00 0.00 96 1011.9
20260505041520 11 94 0.0 0.0 0.00 0.00 0.00 95 1011.9
20260505041004 11 94 0.0 0.0 0.00 0.00 0.00 95 1011.9
20260505035952 11 94 0.0 0.0 0.00 0.00 0.00 95 1011.9
20260505034947 11 94 0.0 0.0 0.00 0.00 0.00 95 1011.8
20260505034445 11 94 0.0 0.0 0.00 0.00 0.00 95 1011.8